TimeMST,TemperatureF,Dew PointF,Humidity,Sea Level PressureIn,VisibilityMPH,Wind Direction,Wind SpeedMPH,Gust SpeedMPH,PrecipitationIn,Events,Conditions,WindDirDegrees,DateUTC
12:53 AM,6.1,3.0,87,30.05,6.0,North,5.8,-,N/A,,Overcast,10,2012-12-27 07:53:00
1:53 AM,7.0,3.0,84,30.06,3.0,NNE,3.5,-,0.00,Snow,Light Snow,20,2012-12-27 08:53:00
2:09 AM,6.8,3.2,85,29.89,2.5,NNE,4.6,-,0.00,Snow,Light Snow,20,2012-12-27 09:09:00
2:17 AM,6.8,3.2,85,29.90,4.0,NNE,3.5,-,0.00,Snow,Light Snow,20,2012-12-27 09:17:00
2:53 AM,7.0,3.0,84,30.06,10.0,Calm,Calm,-,0.00,,Overcast,0,2012-12-27 09:53:00
3:53 AM,7.0,3.0,84,30.06,9.0,Calm,Calm,-,0.00,Snow,Light Snow,0,2012-12-27 10:53:00
4:53 AM,3.9,-0.0,84,30.07,9.0,NNW,8.1,-,0.00,,Overcast,330,2012-12-27 11:53:00
5:53 AM,3.0,-2.0,80,30.08,10.0,NW,5.8,-,0.00,,Overcast,310,2012-12-27 12:53:00
6:53 AM,1.9,-2.9,80,30.09,10.0,WNW,8.1,-,N/A,,Overcast,290,2012-12-27 13:53:00
7:53 AM,1.0,-4.0,79,30.12,10.0,NW,5.8,-,N/A,,Overcast,310,2012-12-27 14:53:00
8:53 AM,-0.0,-5.1,79,30.14,10.0,WNW,9.2,-,N/A,,Overcast,300,2012-12-27 15:53:00
9:53 AM,-0.9,-6.0,79,30.15,10.0,WNW,5.8,-,N/A,,Overcast,290,2012-12-27 16:53:00
10:00 AM,-0.4,-5.8,78,29.97,10.0,West,5.8,-,N/A,,Overcast,280,2012-12-27 17:00:00
10:53 AM,1.9,-2.9,80,30.14,10.0,WNW,9.2,-,N/A,,Overcast,290,2012-12-27 17:53:00
11:53 AM,5.0,-0.0,80,30.12,10.0,Calm,Calm,-,N/A,,Overcast,0,2012-12-27 18:53:00
12:53 PM,8.1,3.0,80,30.10,10.0,West,4.6,-,N/A,,Overcast,280,2012-12-27 19:53:00
1:11 PM,8.6,3.2,79,29.93,10.0,West,5.8,-,N/A,,Overcast,260,2012-12-27 20:11:00
2:53 PM,10.0,3.9,76,30.10,8.0,WSW,3.5,-,N/A,,Overcast,240,2012-12-27 21:53:00
3:53 PM,8.1,1.9,76,30.11,10.0,SSW,3.5,-,N/A,,Scattered Clouds,200,2012-12-27 22:53:00
4:53 PM,5.0,-0.0,80,30.13,10.0,SSE,4.6,-,N/A,,Clear,160,2012-12-27 23:53:00
5:53 PM,3.9,-0.0,84,30.13,10.0,SSE,4.6,-,N/A,,Clear,150,2012-12-28 00:53:00
6:53 PM,3.9,-0.0,84,30.14,10.0,South,4.6,-,N/A,,Clear,170,2012-12-28 01:53:00
7:53 PM,3.9,-0.0,84,30.14,10.0,SSE,4.6,-,N/A,,Clear,160,2012-12-28 02:53:00
8:53 PM,3.0,-0.9,84,30.14,10.0,SSE,6.9,-,N/A,,Clear,150,2012-12-28 03:53:00
9:53 PM,1.9,-0.9,88,30.14,10.0,SSE,5.8,-,N/A,,Clear,150,2012-12-28 04:53:00
10:53 PM,-2.0,-7.1,79,30.15,10.0,SSE,6.9,-,N/A,,Clear,150,2012-12-28 05:53:00
11:53 PM,-0.9,-5.1,83,30.14,10.0,SSE,6.9,-,N/A,,Clear,150,2012-12-28 06:53:00